Flag for Malaysia Weather past 2 weeks in Johor Bahru, Malaysia

Now
86 °F

Partly sunny.


Feels Like: 97 °F
Forecast: 79 / 92 °F
Wind: 2 mph from East

Location: Singapore / Paya Lebar


UV Index: 7 (High)

Visibility: N/A


Pressure: 29.74 "Hg

Humidity: 75%

Dew point: 77 °F

Location of Johor BahruLocation

Historic Weather in Johor Bahru

°F

Johor Bahru temperature yesterday

Maximum temperature yesterday: 93 °F (at 2:00 PM)
Minimum temperature yesterday: 79 °F (at 5:00 AM)
Average temperature yesterday: 86 °F

Past Weeks' High & Low Weather Summary

 TemperatureHumidityPressure
High95 °F (Apr 7, 2:00 PM)94% (Apr 11, 8:00 PM)29.92 "Hg (Apr 11, 8:00 PM)
Low77 °F (Apr 5, 11:00 PM)44% (Apr 7, 2:00 PM)29.71 "Hg (Apr 14, 5:00 PM)
Average84 °F76%29.82 "Hg
* Reported Apr 5 6:00 PM — Apr 20 6:00 PM, Johor Bahru, Weather by CustomWeather, © 2014

Note: Actual official high and low records may vary slightly from our data, if they occured in-between our weather recording intervals... More about our weather records

Advertising

Historic Weather Conditions — Data for Previous 24 hours

 ConditionsComfort  
Time TempWeatherWind HumidityBarometerVisibility
6:00 PM
Apr 20
86 °FBroken clouds.1 mph75%29.74 "HgN/A
5:00 PM86 °FPartly sunny.2 mph75%29.71 "HgN/A
4:00 PM84 °FPartly sunny.1 mph79%29.71 "HgN/A
3:00 PM82 °FPartly sunny.1 mph79%29.74 "HgN/A
2:00 PM82 °FLight rain. Partly sunny.3 mph84%29.80 "HgN/A
1:00 PM84 °FThunderstorms. Scattered clouds.6 mph79%29.80 "HgN/A
12:00 PM86 °FThunderstorms. Scattered clouds.9 mph70%29.83 "HgN/A
11:00 AM86 °FScattered showers. Scattered clouds.15 mph75%29.83 "HgN/A
10:00 AM88 °FScattered showers. Partly sunny.5 mph66%29.83 "HgN/A
9:00 AM86 °FPartly sunny.6 mph79%29.80 "HgN/A
8:00 AM84 °FPartly sunny.1 mph79%29.77 "HgN/A
7:00 AM82 °FBroken clouds.2 mph84%29.77 "HgN/A
6:00 AM82 °FPassing clouds.1 mph84%29.77 "HgN/A
5:00 AM82 °FPassing clouds.2 mph84%29.77 "HgN/A
11:00 PM
Apr 19
84 °FPassing clouds.3 mph84%29.80 "HgN/A
10:00 PM86 °FPassing clouds.3 mph75%29.80 "HgN/A
9:00 PM86 °FPassing clouds.3 mph75%29.77 "HgN/A
8:00 PM86 °FPassing clouds.2 mph70%29.74 "HgN/A
7:00 PM88 °FPartly sunny.3 mph66%29.71 "HgN/A
Weather by CustomWeather, © 2014

See weather overview